This is the latest recevied weather packets stored in our database for station/object K4CRS-13. If no packets are shown the sender has not sent any weather packets the latest 10 day(s).
| Time | Temp. | Humidity | Pressure | Rain* | Wind** | Luminosity | Snow |
|---|---|---|---|---|---|---|---|
| 1777121900 | 17.78° C | 99% | 1044.6 hPa | 0 mm | - | 120 W/m² | - |
| 1777121597 | 17.78° C | 99% | 1044.7 hPa | 0 mm | - | 111 W/m² | - |
| 1777121293 | 17.78° C | 99% | 1045.1 hPa | 0 mm | - | 114 W/m² | - |
| 1777120990 | 17.78° C | 99% | 1045 hPa | 0 mm | - | 108 W/m² | - |
| 1777120686 | 17.22° C | 99% | 1045 hPa | 0 mm | - | 96 W/m² | - |
| 1777120382 | 17.22° C | 99% | 1045.1 hPa | 0 mm | - | 90 W/m² | - |
| 1777120077 | 17.22° C | 99% | 1045.3 hPa | 0 mm | - | 82 W/m² | - |
| 1777119773 | 17.22° C | 99% | 1045.4 hPa | 0 mm | - | 71 W/m² | - |
| 1777119470 | 17.22° C | 99% | 1045.3 hPa | 0 mm | - | 68 W/m² | - |
| 1777119169 | 17.22° C | 99% | 1045.4 hPa | 0 mm | - | 57 W/m² | - |
| 1777118865 | 16.67° C | 99% | 1045.4 hPa | 0 mm | - | 49 W/m² | - |
| 1777118562 | 16.67° C | 99% | 1045.1 hPa | 0 mm | - | 44 W/m² | - |
| 1777118256 | 16.67° C | 99% | 1044.9 hPa | 0 mm | - | 39 W/m² | - |
| 1777117953 | 16.67° C | 99% | 1044.9 hPa | 0 mm | - | 31 W/m² | - |
| 1777117650 | 16.67° C | 99% | 1044.8 hPa | 0 mm | - | 30 W/m² | - |
| 1777117348 | 16.67° C | 99% | 1044.7 hPa | 0 mm | - | 24 W/m² | - |
| 1777117043 | 16.67° C | 99% | 1044.7 hPa | 1.27 mm | - | 18 W/m² | - |
| 1777116739 | 16.67° C | 99% | 1044.9 hPa | 1.27 mm | - | 9 W/m² | - |
| 1777116435 | 16.67° C | 99% | 1044.7 hPa | 0 mm | - | 4 W/m² | - |
| 1777116131 | 16.67° C | 99% | 1044.7 hPa | 0 mm | - | 2 W/m² | - |
| 1777115831 | 16.67° C | 99% | 1044.6 hPa | 0 mm | - | 1 W/m² | - |
| 1777115527 | 16.67° C | 99% | 1044.3 hPa | 0 mm | - | 1 W/m² | - |
| 1777115223 | 16.67° C | 99% | 1044.3 hPa | 0 mm | - | 0 W/m² | - |
* Rain latest hour (hover to see other rain measurements)
** Current wind speed in m/s (hover to see current wind gust speed)